TimeCDT,TemperatureF,Dew PointF,Humidity,Sea Level PressureIn,VisibilityMPH,Wind Direction,Wind SpeedMPH,Gust SpeedMPH,PrecipitationIn,Events,Conditions,WindDirDegrees,DateUTC
12:10 AM,28.4,28.4,100,30.33,10.0,SSE,8.1,-,N/A,,Clear,150,2013-10-25 05:10:00
12:30 AM,28.4,28.4,100,30.32,10.0,SSE,6.9,-,N/A,,Clear,150,2013-10-25 05:30:00
12:50 AM,28.4,28.4,100,30.32,10.0,SSE,5.8,-,N/A,,Clear,160,2013-10-25 05:50:00
1:10 AM,28.4,28.4,100,30.32,10.0,South,4.6,-,N/A,,Clear,170,2013-10-25 06:10:00
1:30 AM,26.6,26.6,100,30.32,10.0,SSE,4.6,-,N/A,,Clear,160,2013-10-25 06:30:00
1:50 AM,26.6,26.6,100,30.31,10.0,SSE,4.6,-,N/A,,Clear,160,2013-10-25 06:50:00
2:10 AM,26.6,26.6,100,30.31,10.0,South,6.9,-,N/A,,Clear,180,2013-10-25 07:10:00
2:30 AM,26.6,26.6,100,30.31,10.0,South,6.9,-,N/A,,Clear,180,2013-10-25 07:30:00
2:50 AM,26.6,26.6,100,30.30,10.0,South,8.1,-,N/A,,Clear,170,2013-10-25 07:50:00
3:10 AM,26.6,26.6,100,30.30,10.0,South,8.1,-,N/A,,Clear,180,2013-10-25 08:10:00
3:30 AM,26.6,26.6,100,30.29,10.0,South,8.1,-,N/A,,Clear,170,2013-10-25 08:30:00
3:50 AM,26.6,26.6,100,30.28,10.0,South,9.2,-,N/A,,Clear,180,2013-10-25 08:50:00
4:10 AM,26.6,26.6,100,30.28,10.0,South,8.1,-,N/A,,Clear,170,2013-10-25 09:10:00
4:30 AM,26.6,26.6,100,30.27,10.0,South,6.9,-,N/A,,Clear,170,2013-10-25 09:30:00
4:50 AM,24.8,24.8,100,30.26,10.0,South,8.1,-,N/A,,Clear,180,2013-10-25 09:50:00
5:10 AM,26.6,26.6,100,30.26,10.0,South,9.2,-,N/A,,Clear,170,2013-10-25 10:10:00
5:30 AM,26.6,26.6,100,30.25,10.0,South,8.1,-,N/A,,Clear,170,2013-10-25 10:30:00
5:50 AM,26.6,26.6,100,30.23,10.0,South,9.2,-,N/A,,Partly Cloudy,170,2013-10-25 10:50:00
6:10 AM,26.6,26.6,100,30.23,10.0,South,9.2,-,N/A,,Clear,180,2013-10-25 11:10:00
6:30 AM,26.6,26.6,100,30.22,10.0,South,8.1,-,N/A,,Clear,170,2013-10-25 11:30:00
6:50 AM,24.8,24.8,100,30.21,10.0,South,8.1,-,N/A,,Clear,180,2013-10-25 11:50:00
7:10 AM,26.6,26.6,100,30.20,10.0,South,6.9,-,N/A,,Clear,170,2013-10-25 12:10:00
7:30 AM,26.6,26.6,100,30.19,10.0,South,5.8,-,N/A,,Partly Cloudy,170,2013-10-25 12:30:00
7:50 AM,24.8,24.8,100,30.18,10.0,South,5.8,-,N/A,,Mostly Cloudy,180,2013-10-25 12:50:00
8:10 AM,24.8,24.8,100,30.18,10.0,SSE,5.8,-,N/A,,Partly Cloudy,160,2013-10-25 13:10:00
8:30 AM,26.6,26.6,100,30.18,10.0,South,5.8,-,N/A,,Clear,180,2013-10-25 13:30:00
8:50 AM,28.4,28.4,100,30.17,10.0,South,5.8,-,N/A,,Clear,170,2013-10-25 13:50:00
9:10 AM,30.2,30.2,100,30.17,10.0,South,6.9,-,N/A,,Clear,190,2013-10-25 14:10:00
9:30 AM,33.8,33.8,100,30.16,10.0,SSW,9.2,-,N/A,,Clear,200,2013-10-25 14:30:00
9:50 AM,37.4,37.4,100,30.16,10.0,SSW,12.7,-,N/A,,Clear,210,2013-10-25 14:50:00
10:10 AM,39.2,39.2,100,30.15,10.0,SW,12.7,20.7,N/A,,Clear,220,2013-10-25 15:10:00
10:30 AM,39.2,37.4,93,30.14,10.0,SW,15.0,21.9,N/A,,Clear,230,2013-10-25 15:30:00
10:50 AM,41.0,37.4,87,30.13,10.0,SW,17.3,21.9,N/A,,Clear,230,2013-10-25 15:50:00
11:10 AM,42.8,39.2,87,30.12,10.0,SW,16.1,19.6,N/A,,Clear,220,2013-10-25 16:10:00
11:30 AM,44.6,39.2,81,30.11,10.0,SW,16.1,-,N/A,,Clear,230,2013-10-25 16:30:00
11:50 AM,46.4,39.2,76,30.10,10.0,SW,18.4,23.0,N/A,,Clear,230,2013-10-25 16:50:00
12:10 PM,48.2,39.2,71,30.08,10.0,SW,18.4,-,N/A,,Clear,230,2013-10-25 17:10:00
12:30 PM,48.2,39.2,71,30.07,10.0,SW,18.4,24.2,N/A,,Clear,220,2013-10-25 17:30:00
12:50 PM,50.0,39.2,66,30.06,10.0,SW,18.4,26.5,N/A,,Clear,220,2013-10-25 17:50:00
1:10 PM,53.6,39.2,58,30.05,10.0,SW,18.4,26.5,N/A,,Clear,220,2013-10-25 18:10:00
1:30 PM,53.6,39.2,58,30.03,10.0,SSW,20.7,25.3,N/A,,Clear,210,2013-10-25 18:30:00
1:50 PM,55.4,39.2,54,30.02,10.0,SW,18.4,26.5,N/A,,Clear,220,2013-10-25 18:50:00
2:10 PM,55.4,39.2,54,30.01,10.0,SW,19.6,28.8,N/A,,Clear,230,2013-10-25 19:10:00
2:30 PM,57.2,39.2,51,29.99,10.0,SW,16.1,31.1,N/A,,Clear,230,2013-10-25 19:30:00
2:50 PM,57.2,39.2,51,29.98,10.0,SW,20.7,28.8,N/A,,Clear,220,2013-10-25 19:50:00
3:10 PM,59.0,39.2,48,29.97,10.0,SW,24.2,29.9,N/A,,Clear,230,2013-10-25 20:10:00
3:30 PM,59.0,39.2,48,29.96,10.0,SW,23.0,33.4,N/A,,Clear,230,2013-10-25 20:30:00
3:50 PM,59.0,39.2,48,29.95,10.0,SW,21.9,34.5,N/A,,Clear,230,2013-10-25 20:50:00
4:10 PM,60.8,39.2,45,29.94,10.0,SW,25.3,31.1,N/A,,Clear,230,2013-10-25 21:10:00
4:30 PM,60.8,39.2,45,29.93,10.0,SW,24.2,34.5,N/A,,Clear,230,2013-10-25 21:30:00
4:50 PM,60.8,39.2,45,29.92,10.0,WSW,17.3,31.1,N/A,,Clear,240,2013-10-25 21:50:00
5:10 PM,60.8,39.2,45,29.92,10.0,WSW,18.4,27.6,N/A,,Clear,240,2013-10-25 22:10:00
5:30 PM,59.0,39.2,48,29.91,10.0,WSW,18.4,24.2,N/A,,Clear,240,2013-10-25 22:30:00
5:50 PM,59.0,39.2,48,29.91,10.0,WSW,17.3,25.3,N/A,,Clear,240,2013-10-25 22:50:00
6:10 PM,57.2,39.2,51,29.91,10.0,WSW,13.8,20.7,N/A,,Clear,240,2013-10-25 23:10:00
6:30 PM,55.4,41.0,58,29.89,10.0,SW,16.1,-,N/A,,Clear,230,2013-10-25 23:30:00
6:50 PM,55.4,39.2,54,29.90,10.0,WSW,16.1,23.0,N/A,,Clear,240,2013-10-25 23:50:00
7:10 PM,55.4,39.2,54,29.91,10.0,WSW,13.8,20.7,N/A,,Clear,240,2013-10-26 00:10:00
7:30 PM,53.6,39.2,58,29.92,10.0,WSW,12.7,-,N/A,,Clear,240,2013-10-26 00:30:00
7:50 PM,51.8,39.2,62,29.92,10.0,WSW,12.7,-,N/A,,Clear,240,2013-10-26 00:50:00
8:10 PM,50.0,41.0,71,29.92,10.0,WSW,10.4,-,N/A,,Clear,240,2013-10-26 01:10:00
8:30 PM,50.0,41.0,71,29.92,10.0,WSW,11.5,-,N/A,,Clear,250,2013-10-26 01:30:00
8:50 PM,50.0,41.0,71,29.92,10.0,West,10.4,-,N/A,,Clear,260,2013-10-26 01:50:00
9:10 PM,50.0,39.2,66,29.92,10.0,WSW,10.4,18.4,N/A,,Clear,250,2013-10-26 02:10:00
9:30 PM,50.0,41.0,71,29.93,10.0,West,11.5,-,N/A,,Clear,270,2013-10-26 02:30:00
9:50 PM,50.0,41.0,71,29.94,10.0,West,9.2,-,N/A,,Clear,280,2013-10-26 02:50:00
10:10 PM,48.2,41.0,76,29.95,10.0,WNW,10.4,-,N/A,,Clear,290,2013-10-26 03:10:00
10:30 PM,46.4,41.0,81,29.95,10.0,NW,10.4,-,N/A,,Clear,310,2013-10-26 03:30:00
10:50 PM,44.6,42.8,93,29.95,10.0,NW,9.2,-,N/A,,Clear,320,2013-10-26 03:50:00
11:10 PM,46.4,41.0,81,29.96,10.0,NW,11.5,-,N/A,,Clear,310,2013-10-26 04:10:00
11:30 PM,44.6,41.0,87,29.96,10.0,NW,10.4,-,N/A,,Clear,310,2013-10-26 04:30:00
11:50 PM,44.6,39.2,81,29.96,10.0,NW,13.8,-,N/A,,Clear,320,2013-10-26 04:50:00